This is the latest recevied weather packets stored in our database for station/object KB1ZFK. If no packets are shown the sender has not sent any weather packets the latest 10 day(s).
| Time | Temp. | Humidity | Pressure | Rain* | Wind** | Luminosity | Snow |
|---|---|---|---|---|---|---|---|
| 1777420884 | 8.89° C | 25% | 1020 hPa | 0 mm | - | 0 W/m² | - |
| 1777420580 | 9.44° C | 26% | 1020 hPa | 0 mm | - | 0 W/m² | - |
| 1777420276 | 9.44° C | 26% | 1019.9 hPa | 0 mm | - | 0 W/m² | - |
| 1777419971 | 9.44° C | 26% | 1019.9 hPa | 0 mm | - | 0 W/m² | - |
| 1777419669 | 10° C | 26% | 1019.8 hPa | 0 mm | - | 1 W/m² | - |
| 1777419367 | 10° C | 27% | 1019.6 hPa | 0 mm | - | 3 W/m² | - |
| 1777419066 | 10° C | 29% | 1019.8 hPa | 0 mm | - | 4 W/m² | - |
| 1777418765 | 10.56° C | 26% | 1019.6 hPa | 0 mm | - | 6 W/m² | - |
| 1777418463 | 10.56° C | 29% | 1019.7 hPa | 0 mm | - | 8 W/m² | - |
| 1777418158 | 10.56° C | 29% | 1019.7 hPa | 0 mm | - | 12 W/m² | - |
| 1777417855 | 11.11° C | 28% | 1019.8 hPa | 0 mm | - | 16 W/m² | - |
| 1777417551 | 11.11° C | 29% | 1019.4 hPa | 0 mm | - | 21 W/m² | - |
| 1777417247 | 11.11° C | 28% | 1019.8 hPa | 0 mm | - | 24 W/m² | - |
| 1777416943 | 11.67° C | 33% | 1019.6 hPa | 0 mm | - | 28 W/m² | - |
| 1777416638 | 11.67° C | 32% | 1019.5 hPa | 0 mm | - | 31 W/m² | - |
| 1777416334 | 11.67° C | 33% | 1019.6 hPa | 0 mm | - | 34 W/m² | - |
| 1777416034 | 12.22° C | 33% | 1019.7 hPa | 0 mm | - | 38 W/m² | - |
| 1777415730 | 12.22° C | 33% | 1019.6 hPa | 0 mm | - | 43 W/m² | - |
| 1777415425 | 12.22° C | 33% | 1019.7 hPa | 0 mm | - | 47 W/m² | - |
| 1777415120 | 12.22° C | 34% | 1019.8 hPa | 0 mm | - | 51 W/m² | - |
| 1777414815 | 12.78° C | 33% | 1020 hPa | 0 mm | - | 54 W/m² | - |
| 1777414510 | 12.78° C | 33% | 1019.9 hPa | 0 mm | - | 57 W/m² | - |
| 1777414210 | 12.78° C | 33% | 1020.1 hPa | 0 mm | - | 62 W/m² | - |
| 1777413905 | 12.78° C | 34% | 1019.9 hPa | 0 mm | - | 68 W/m² | - |
| 1777413601 | 13.33° C | 35% | 1019.9 hPa | 0 mm | - | 73 W/m² | - |
* Rain latest hour (hover to see other rain measurements)
** Current wind speed in m/s (hover to see current wind gust speed)